Regional Weather Roundup
Issued by NWS

Home | Current Version | Previous Version | Text Only | Print | Product List | Glossary On
Versions: 1 2 3 4 5 6 7 8 9 10 11 12 13 14 15 16 17 18 19 20 21 22 23 24 25 26 27 28 29 30 31 32 33 34 35 36 37 38 39 40 41 42 43 44 45 46 47 48 49 50
000
ASUS43 KOAX 212310
RWRNE

WEATHER ROUNDUP FOR NEBRASKA
NATIONAL WEATHER SERVICE OMAHA NE
600 PM CDT MON OCT 21 2019

NOTES: SATELLITE DATA IS BEING USED TO AUGMENT CLOUD COVER ABOVE
       12000 FEET.
       "FAIR" INDICATES FEW OR NO CLOUDS BELOW 12,000 FEET WITH NO
       SIGNIFICANT WEATHER AND/OR OBSTRUCTIONS TO VISIBILITY.


NEZ001>004-019>022-054>056-220000-
NEBRASKA PANHANDLE

CITY           SKY/WX    TMP DP  RH WIND       PRES   REMARKS
SCOTTSBLUFF    CLOUDY    47  28  47 NW14      30.00R
ALLIANCE       MOCLDY    48  21  34 NW24G33   29.95
CHADRON        CLOUDY    48  23  37 NW16G24   29.98R
GORDON         FAIR      46  24  41 NW20G26   29.93R
KIMBALL        CLOUDY    46  15  29 NW22      30.01R
SIDNEY         CLOUDY    45  21  38 N20G29    29.99R
$$

NEZ057>060-069>072-079>082-220000-
SOUTHWEST NEBRASKA

CITY           SKY/WX    TMP DP  RH WIND       PRES   REMARKS
NORTH PLATTE   FAIR      50  19  29 N31G44    29.89R
IMPERIAL       FAIR      50  15  24 NW22G33   29.95R
LEXINGTON      FAIR      50  22  33 NW29G44   29.85R
MCCOOK         FAIR      52  18  26 NW23G41   29.91R
OGALLALA       FAIR      51  20  29 NW17      29.95R
$$

NEZ005>010-023>029-035>040-094-220000-
NORTH CENTRAL NEBRASKA

CITY           SKY/WX    TMP DP  RH WIND       PRES   REMARKS
VALENTINE      FAIR      48  27  44 NW22G33   29.84R
AINSWORTH      FAIR      45  30  56 NW26G38   29.82R
BROKEN BOW     MOCLDY    49  25  39 NW26G46   29.80R
O`NEILL        DRIZZLE   41  39  93 NW26G37   29.72R
ORD            CLOUDY    44  34  67 NW35G48   29.76R
THEDFORD       FAIR      48  25  39 NW30G44   29.86R
$$

NEZ041-046>049-061>064-073>077-083>087-220000-
SOUTH CENTRAL NEBRASKA

CITY           SKY/WX    TMP DP  RH WIND       PRES   REMARKS
GRAND ISLAND   CLOUDY    47  34  60 NW25G40   29.75R
AURORA         CLOUDY    48  38  66 NW30G41   29.73R
HASTINGS       CLOUDY    47  34  60 NW28G43   29.78R
HEBRON         CLOUDY    50  36  57 NW28G36   29.75R
HOLDREGE       MOCLDY    50  25  37 NW22G37   29.83R
KEARNEY        FAIR      47  28  47 NW30G41   29.81R
YORK           MOCLDY    46  37  71 MISG      29.70R
$$

NEZ011>018-030>034-042>045-220000-
NORTHEAST NEBRASKA

CITY           SKY/WX    TMP DP  RH WIND       PRES   REMARKS
NORFOLK        LGT RAIN  44  40  85 NW22G40   29.61R
ALBION         DRIZZLE   44  40  88 NW21G33   29.69R
BLAIR          RAIN      46  42  85 W14G26    29.56R
COLUMBUS       CLOUDY    45  39  79 W30G37    29.65R
FREMONT        CLOUDY    48  44  85 W22G30    29.59R
TEKAMAH        LGT RAIN  47  41  80 W20G31    29.54R
WAYNE          LGT RAIN  44  41  90 NW20G32   29.56R
$$

NEZ050>053-065>068-078-088>093-220000-
SOUTHEAST NEBRASKA

CITY           SKY/WX    TMP DP  RH WIND       PRES   REMARKS
LINCOLN        CLOUDY    50  37  61 NW25G40   29.66R
OMAHA EPPLEY   LGT RAIN  48  43  82 W21G33    29.56R
BEATRICE       CLOUDY    51  39  63 NW22G31   29.69R
FALLS CITY     CLOUDY    52  40  63 W21G37    29.64R
NEBRASKA CITY  CLOUDY    51  41  69 W23G29    29.61R
PLATTSMOUTH    CLOUDY    49  43  80 W30G38    29.58R
$$

NEZ044-045-051>053-067-220000-
OMAHA AREA

CITY           SKY/WX    TMP DP  RH WIND       PRES   REMARKS
OMAHA EPPLEY   LGT RAIN  48  43  82 W21G33    29.56R
BLAIR          RAIN      46  42  85 W14G26    29.56R
FREMONT        CLOUDY    48  44  85 W22G30    29.59R
MILLARD        LGT RAIN  49  43  80 W25       29.58R
OFFUTT AFB     LGT RAIN  48  43  81 W21G39    29.60R
PLATTSMOUTH    CLOUDY    49  43  80 W30G38    29.58R
WAHOO          CLOUDY    48  41  76 NW28G35   29.61R
$$



USA.gov is the U.S. government's official web portal to all federal, state and local government web resources and services.